CUTE (49263 NORAD) Tracking and Keplerian Element Data

This shows tracking and keplerian element data for the satellite.

Feedback or suggestion? Click here.




ElementValue
Catalog49263
NameCUTE
Epoch Orbit256
Epoch Day287.93088145
Epoch Year2021
RAAN355.6507
Inclination97.6233
Eccentricity0.001744
Argument of Perigee188.1152
Mean Anonmoly171.9823
Mean Motion15.01618302
Decay Rate2.189E-05
L11 49263U 21088D 21287.93088145 .00002189 00000-0 17284-3 0 9996
L22 49263 97.6233 355.6507 0017440 188.1152 171.9823 15.01618302 2560

Live tracking and technical data element details for CUTE (NORAD 49263). CUTE can be tracked NOW for your location showing map with azimuth and elevation plus other details from your city location.

Track the satellite on the map from your city or location and see movement details for azimuth, elevation, latitude, longitude, range, height, and movement on the map or in text.







IsCatalogInMostPopularTable: catalog: 49263, numindb: 8
Update: records affected: 1



GetName: 49263 CUTE

Hit Count: updated at: Tue, 19 Oct 2021 09:34:29 GMT